Temp
83 93 101 97 81 83 80 85 96 92 93 99 99 96 95 100 94 85 107 110 110 105 93 87 79 79 79 79 79 79 78 78 78 79 79 79 79 79 79 79 79 79 80 80 80 80 79 79 79
94 97 96 91 77 75 81 92 90 94 99 101 98 97 95 93 106 101 103 108 109 103 94 92 79 79 79 79 79 78 78 78 78 78 78 78 78 79 79 78 79 79 80 80 80 79 79 79 79
92 98 88 84 80 75 82 94 95 98 99 97 97 100 97 94 103 106 108 107 108 102 98 93 78 78 79 79 78 78 78 78 78 78 78 78 78 78 78 78 79 80 80 80 79 79 79 79 79
93 92 89 77 77 85 87 94 96 97 98 101 99 93 101 106 104 109 107 109 108 106 102 88 78 78 79 79 78 78 78 78 78 78 78 78 78 78 77 78 78 79 80 80 79 79 79 78 78
94 90 77 77 78 86 93 97 96 93 96 97 99 93 96 105 108 108 107 110 107 108 105 93 78 78 79 79 78 78 78 78 78 78 78 78 78 77 77 77 78 79 79 80 79 79 78 78 78
81 86 74 73 79 88 93 97 96 93 97 98 97 96 99 109 106 108 107 108 109 106 104 95 80 78 78 78 78 78 77 77 77 78 78 78 77 77 77 77 78 78 79 79 79 78 78 77 77
78 80 72 75 80 84 90 98 94 93 94 95 102 93 100 105 109 110 109 109 110 109 104 96 88 83 78 78 78 77 77 77 77 77 77 77 77 77 77 77 77 78 78 78 78 78 77 77 77
84 80 71 76 73 77 91 94 98 95 93 104 100 90 94 104 108 110 111 110 110 109 106 101 92 90 87 86 78 77 77 77 77 77 77 77 77 77 77 76 77 77 77 77 77 77 77 77 76
86 73 71 74 74 76 85 84 96 101 97 99 101 99 100 104 107 108 108 108 108 107 106 104 102 95 91 92 87 78 77 77 77 77 77 77 84 83 83 80 79 77 77 77 77 77 77 76 76
80 72 74 84 86 84 85 87 90 92 90 92 95 98 101 103 104 104 104 103 104 105 107 107 102 99 97 98 93 86 87 86 83 84 84 83 85 86 87 84 78 77 77 77 77 76 76 77 85
80 72 81 83 87 89 84 86 93 90 88 93 92 94 97 99 100 101 103 103 105 108 108 107 99 97 97 99 98 95 92 89 88 85 85 84 87 88 88 88 85 83 78 83 80 80 82 83 86
74 81 82 84 85 86 81 86 85 90 92 99 100 100 100 97 97 99 100 104 106 107 107 107 102 93 93 99 98 97 95 94 92 90 85 84 85 86 86 88 89 84 86 82 85 85 84 84 86
77 80 83 85 85 85 85 81 82 86 94 100 101 99 98 98 98 101 102 104 105 104 105 105 104 93 90 88 96 96 95 97 95 93 89 88 87 85 87 87 89 89 88 87 86 88 87 86 87
81 82 82 84 83 84 81 81 83 86 92 94 96 97 98 98 99 99 99 99 100 101 102 103 101 94 90 89 88 91 93 96 96 95 93 86 88 86 88 86 87 89 91 90 89 87 87 86 87
78 73 78 81 82 80 83 74 76 86 90 90 92 95 96 97 99 98 100 98 99 100 101 99 100 98 92 92 91 90 93 95 94 95 92 90 85 85 85 87 86 88 88 88 89 88 87 86 87
70 72 66 77 80 82 78 66 79 86 86 86 90 92 94 96 98 99 100 99 99 99 98 98 102 101 97 93 92 94 96 94 94 94 94 89 87 85 85 86 86 88 87 88 87 87 85 85 84
66 59 65 71 81 79 75 70 79 84 85 86 88 90 93 94 96 98 100 99 98 96 95 95 96 96 96 94 93 92 91 93 94 93 93 90 88 85 84 86 86 86 87 87 86 84 84 83 83
59 62 65 65 76 79 75 74 79 83 83 83 86 90 91 93 95 99 100 99 98 96 93 92 93 93 93 93 91 92 94 93 93 93 92 90 87 85 83 86 85 85 85 85 84 81 84 83 83
65 62 62 70 78 75 74 74 78 82 80 82 86 88 90 91 95 99 99 97 96 93 90 89 89 90 89 91 90 92 91 92 92 92 90 88 86 85 83 85 84 83 83 82 82 81 78 81 80
62 59 59 67 73 72 73 73 79 82 81 81 83 87 88 90 93 94 95 94 92 90 89 88 89 88 88 89 87 93 94 95 92 92 88 87 85 84 83 83 83 80 83 80 79 78 78 79 75
60 57 58 59 67 71 69 67 73 81 84 84 85 87 89 89 89 91 92 92 92 90 88 88 87 86 87 87 90 89 90 91 90 89 86 85 85 84 82 81 84 81 83 82 79 78 77 76 77
54 64 62 59 58 53 68 54 66 74 77 81 82 84 87 89 90 90 90 90 90 90 92 91 88 87 88 88 86 85 86 86 88 89 88 86 85 80 80 81 82 81 84 80 80 81 78 76 72
57 65 61 60 56 56 59 58 65 74 72 76 81 84 87 89 89 90 92 92 93 94 94 92 89 88 87 88 85 88 84 90 90 90 83 83 80 80 83 81 81 81 83 82 81 80 77 77 74
64 59 59 59 56 46 55 57 61 68 72 77 82 85 87 89 90 91 92 93 93 95 95 93 88 86 87 86 83 84 84 87 88 86 83 83 78 79 80 81 80 82 83 81 81 79 76 76 75
59 53 41 39 42 41 57 56 60 74 78 79 81 84 87 89 89 89 90 92 92 92 91 92 88 86 86 85 83 84 85 86 85 82 85 83 79 81 77 80 81 82 81 81 79 76 75 74 76
52 49 39 30 37 43 57 50 61 74 79 81 82 84 84 84 87 89 90 90 92 93 92 89 88 86 86 84 83 84 85 87 87 85 88 87 86 85 81 82 82 83 81 80 78 75 79 77 75
54 45 51 43 43 34 45 59 68 74 75 78 81 80 80 81 83 86 88 88 89 90 90 89 89 87 85 85 84 84 84 86 86 84 84 86 85 84 82 83 82 81 81 78 77 80 77 77 75
56 60 42 47 34 31 44 48 57 66 71 76 77 78 79 81 84 85 85 83 85 89 90 89 89 86 85 85 84 84 85 86 84 83 84 84 84 84 82 82 81 79 80 80 78 79 78 75 75
54 50 51 49 46 35 39 49 66 70 72 74 78 78 78 80 84 85 83 80 83 90 90 87 87 85 84 84 85 84 84 84 83 83 83 82 82 82 82 82 78 80 79 79 77 77 75 75 73
56 52 48 41 43 48 44 45 70 74 77 78 76 77 78 81 84 87 83 79 86 87 87 86 86 86 86 86 85 83 83 83 81 81 82 82 81 83 83 82 81 81 80 79 75 74 75 75 74
MSLP
1010.15 1009.20 1007.73 1006.24 1005.08 1002.19 999.29 997.61 996.41 996.35 996.59 996.86 997.29 997.50 996.96 996.47 996.64 998.24 999.66 999.74 1000.69 1002.20 1004.20 1005.70 1006.55 1007.09 1007.52 1008.01 1008.50 1008.96 1009.22 1009.35 1009.66 1009.99 1010.36 1010.91 1011.27 1011.61 1011.85 1012.20 1012.43 1012.42 1012.62 1012.78 1012.88 1012.99 1013.16 1013.25 1013.36
1009.17 1008.17 1007.30 1005.05 1003.18 1000.06 997.75 996.74 995.93 996.49 996.42 997.03 997.76 997.83 997.46 996.69 996.84 998.86 999.70 1000.34 1001.06 1002.58 1004.17 1005.25 1006.35 1006.80 1007.29 1007.92 1008.60 1009.16 1009.48 1009.76 1009.89 1010.23 1010.52 1011.01 1011.41 1011.72 1011.89 1012.17 1012.58 1012.65 1012.79 1012.92 1013.03 1013.09 1013.21 1013.35 1013.43
1008.88 1007.58 1006.25 1003.88 1001.79 999.48 996.74 995.44 995.68 996.35 996.64 997.49 997.37 997.84 997.67 997.60 997.86 998.32 999.66 1000.55 1001.50 1002.64 1003.80 1004.80 1006.08 1006.64 1007.11 1007.75 1008.39 1009.04 1009.67 1009.96 1010.15 1010.30 1010.58 1010.96 1011.32 1011.57 1011.92 1012.16 1012.44 1012.72 1012.88 1012.94 1012.98 1013.04 1013.16 1013.24 1013.32
1007.72 1007.08 1006.02 1002.97 1000.43 999.04 997.77 996.12 996.00 996.27 997.23 997.24 997.32 997.30 997.80 998.05 998.17 998.72 1000.14 1000.62 1001.40 1002.29 1003.38 1004.66 1005.91 1006.52 1007.06 1007.74 1008.28 1008.91 1009.42 1009.80 1010.15 1010.42 1010.66 1010.87 1011.15 1011.54 1011.93 1012.21 1012.39 1012.60 1012.83 1012.99 1013.06 1013.14 1013.25 1013.29 1013.35
1007.30 1005.78 1004.10 1001.95 1000.55 999.19 997.77 996.97 997.21 997.02 996.86 996.80 997.18 997.10 997.41 998.25 998.82 999.21 999.99 1000.46 1001.19 1001.79 1002.91 1004.72 1006.10 1006.84 1007.39 1007.78 1008.25 1008.72 1009.29 1009.68 1010.06 1010.31 1010.67 1010.83 1011.11 1011.44 1011.82 1012.21 1012.33 1012.48 1012.74 1012.92 1013.00 1013.16 1013.25 1013.30 1013.36
1006.87 1005.30 1003.36 1001.27 999.98 998.93 998.30 997.66 997.64 997.86 997.37 996.96 996.97 996.95 996.81 997.50 998.82 999.15 999.97 1000.39 1001.06 1001.69 1002.73 1004.26 1006.13 1006.81 1007.31 1007.65 1007.99 1008.46 1009.02 1009.55 1009.79 1010.04 1010.41 1010.68 1010.94 1011.24 1011.59 1011.95 1012.12 1012.35 1012.50 1012.71 1012.92 1013.08 1013.23 1013.34 1013.33
1006.42 1004.46 1003.08 1001.73 999.85 998.55 998.04 998.16 997.70 997.86 997.45 997.04 996.99 996.77 996.84 997.41 998.23 998.90 999.67 1000.29 1000.78 1001.58 1002.76 1004.09 1005.56 1006.49 1007.25 1007.53 1007.88 1008.32 1008.68 1009.06 1009.59 1009.84 1010.23 1010.66 1010.74 1010.99 1011.30 1011.64 1011.86 1012.15 1012.42 1012.59 1012.84 1013.13 1013.29 1013.36 1013.35
1006.01 1005.16 1003.46 1002.10 1001.25 999.73 998.65 998.46 998.00 997.87 997.39 997.02 997.56 997.14 996.71 997.20 998.01 998.83 999.24 999.96 1000.50 1001.39 1002.48 1003.44 1004.78 1005.78 1006.57 1007.08 1007.78 1008.26 1008.58 1008.84 1009.42 1009.94 1010.11 1010.36 1010.56 1010.82 1011.12 1011.48 1011.62 1011.83 1012.15 1012.40 1012.78 1013.00 1013.07 1013.17 1013.28
1006.01 1004.67 1002.42 1001.26 1000.96 1000.80 1000.66 1000.07 998.75 997.94 997.66 997.30 997.60 997.82 998.06 998.14 998.67 998.65 998.99 999.53 1000.19 1000.88 1001.80 1002.78 1003.77 1004.97 1005.85 1006.18 1007.16 1007.97 1008.45 1008.82 1009.20 1009.58 1009.88 1010.24 1010.11 1010.29 1010.52 1010.90 1011.01 1011.50 1011.94 1012.24 1012.49 1012.63 1012.78 1012.98 1013.09
1004.85 1003.27 1001.89 1001.19 1000.53 1000.09 1000.28 1000.41 999.63 998.27 998.28 998.09 997.96 998.74 998.68 998.58 998.68 998.57 998.86 999.24 999.89 1000.29 1000.88 1001.83 1003.06 1003.87 1004.78 1005.08 1005.69 1006.92 1007.27 1007.88 1008.25 1008.63 1008.95 1009.52 1009.36 1009.29 1009.58 1009.96 1010.77 1011.13 1011.65 1011.89 1012.11 1012.34 1012.57 1012.80 1011.92
1003.92 1002.00 1001.71 1001.06 1000.90 1000.43 1000.49 1000.22 999.54 998.27 997.51 997.93 997.94 998.54 998.84 998.65 998.72 998.74 998.98 999.13 999.25 999.61 1000.13 1001.06 1002.68 1003.56 1004.21 1004.36 1004.82 1005.46 1006.04 1006.73 1007.28 1007.78 1008.15 1008.50 1008.60 1008.66 1008.89 1009.14 1009.79 1010.46 1011.22 1011.16 1011.57 1011.81 1011.90 1011.49 1011.02
1003.18 1001.95 1001.72 1001.27 1001.06 1000.58 1000.84 1000.89 1000.06 998.93 997.84 997.55 997.44 997.75 998.44 999.16 999.07 999.14 998.98 998.75 998.59 998.95 999.69 1000.21 1001.62 1003.27 1003.97 1003.93 1004.24 1004.59 1005.00 1005.42 1005.98 1006.41 1007.30 1007.79 1008.21 1008.11 1008.13 1008.34 1008.44 1009.46 1009.74 1010.29 1010.03 1010.26 1010.44 1010.56 1010.21
1002.18 1001.68 1001.30 1001.12 1001.08 1000.90 1000.75 1000.48 1000.48 999.47 998.57 997.86 997.55 997.83 998.24 998.80 999.03 999.05 999.05 998.96 999.02 999.16 999.85 1000.66 1001.41 1002.67 1003.67 1004.16 1003.83 1003.86 1004.17 1004.31 1004.65 1005.08 1005.82 1006.61 1007.02 1007.26 1007.51 1007.71 1007.99 1007.88 1008.51 1008.83 1009.35 1009.12 1009.21 1009.53 1009.55
1002.18 1001.38 1000.89 1000.86 1000.73 1000.69 1000.34 999.94 1000.56 999.25 999.15 998.23 997.80 997.61 998.09 998.49 998.75 998.92 999.32 999.73 999.84 999.90 1000.04 1000.60 1001.37 1002.38 1003.30 1003.77 1003.87 1003.67 1003.79 1003.75 1003.94 1004.10 1004.49 1005.55 1006.07 1006.38 1006.78 1007.28 1007.51 1007.45 1007.33 1007.79 1007.94 1008.44 1008.61 1008.94 1008.97
1002.95 1001.82 1000.82 1000.07 999.86 999.88 1000.40 999.77 999.13 999.12 999.04 998.28 997.86 997.66 998.06 998.00 998.32 998.40 998.83 999.28 999.85 1000.01 1000.17 1000.64 1001.12 1001.76 1002.54 1002.91 1003.20 1003.50 1003.30 1003.34 1003.41 1003.48 1003.90 1004.50 1005.38 1005.80 1006.25 1006.59 1007.03 1006.93 1007.00 1007.19 1007.38 1007.71 1008.21 1008.53 1008.58
1003.54 1001.96 1000.03 998.90 999.46 998.80 1000.10 998.33 997.63 998.53 998.41 998.19 997.76 997.35 997.38 997.39 997.69 998.01 998.40 998.82 999.43 999.79 999.96 1000.52 1000.67 1000.95 1001.68 1002.24 1002.56 1002.65 1002.49 1002.80 1002.80 1003.04 1003.35 1003.88 1004.54 1005.30 1005.79 1006.09 1006.19 1006.46 1006.69 1006.83 1007.21 1007.47 1007.78 1008.03 1008.33
1003.18 1001.00 999.23 998.17 998.36 998.62 999.02 996.82 997.18 998.00 997.49 996.97 996.98 996.92 996.69 996.63 997.03 997.32 997.73 998.34 999.07 999.80 1000.12 1000.33 1000.66 1000.90 1001.24 1001.49 1001.87 1002.03 1002.13 1002.26 1002.19 1002.43 1002.66 1003.14 1004.09 1004.83 1005.36 1005.60 1005.74 1006.11 1006.34 1006.48 1006.78 1007.26 1007.48 1007.64 1007.96
1001.52 1000.75 999.62 998.13 997.50 997.46 997.59 996.18 996.57 996.90 997.11 996.82 996.15 995.73 995.71 995.72 995.93 996.33 996.89 997.81 998.73 999.46 999.95 1000.30 1000.41 1000.51 1000.68 1001.14 1001.47 1001.44 1001.30 1001.64 1001.83 1001.98 1002.15 1002.65 1003.70 1004.35 1005.05 1005.10 1005.45 1005.85 1006.08 1006.18 1006.51 1006.93 1007.11 1007.50 1007.42
1002.23 1001.34 999.45 997.87 997.33 997.29 995.92 995.17 994.76 995.65 996.39 996.02 995.31 995.24 995.11 995.25 995.72 995.75 996.26 997.24 998.28 999.18 999.62 1000.02 1000.30 1000.18 1000.60 1000.53 1000.63 1000.47 1000.53 1000.80 1001.11 1001.52 1001.88 1002.44 1003.31 1003.93 1004.49 1004.83 1005.23 1005.66 1005.72 1005.96 1006.39 1006.82 1007.33 1007.19 1007.64
1002.84 1001.88 1000.15 999.34 998.24 997.38 995.77 994.42 993.58 994.24 994.56 995.34 995.07 994.28 994.63 994.85 995.14 995.52 996.19 997.05 997.95 998.58 998.97 999.46 999.69 999.73 1000.10 1000.08 1000.22 999.84 999.56 999.77 1000.59 1001.18 1001.78 1002.32 1002.95 1003.49 1004.07 1004.44 1004.68 1005.49 1005.38 1005.95 1006.38 1006.93 1006.73 1007.01 1007.82
1002.52 1002.00 1001.12 999.99 999.27 998.38 996.51 994.34 993.21 992.98 993.38 994.05 994.38 994.26 994.15 994.40 994.80 995.19 995.66 996.34 997.17 997.73 998.10 998.52 998.97 999.18 999.47 999.55 999.49 1000.00 1000.23 999.94 1000.33 1000.87 1001.59 1002.19 1002.62 1003.14 1003.86 1004.44 1004.20 1004.96 1005.03 1005.43 1006.25 1006.52 1006.60 1006.57 1007.13
1002.01 1002.22 1001.85 1000.97 1000.15 998.09 996.64 994.03 993.29 992.82 992.47 992.73 993.38 993.68 993.64 993.81 994.18 994.89 995.30 995.70 996.22 996.84 997.18 997.25 997.94 998.37 998.58 998.82 999.13 999.40 999.63 999.56 999.87 1000.41 1000.93 1001.68 1002.36 1003.22 1003.87 1004.04 1004.13 1004.66 1004.79 1004.80 1005.66 1006.17 1006.34 1006.82 1007.15
1001.89 1002.04 1001.77 1001.33 1000.55 999.30 996.83 994.62 992.34 992.45 991.65 991.85 992.27 992.35 992.45 993.05 993.90 993.98 994.24 994.49 995.12 995.41 995.72 996.31 996.89 997.38 997.59 997.81 998.56 998.83 999.41 999.17 999.56 999.96 1000.75 1001.46 1002.34 1003.05 1003.39 1003.81 1004.13 1004.54 1004.72 1004.84 1005.29 1005.75 1006.28 1006.75 1007.15
1002.92 1002.59 1001.75 1001.25 1000.38 998.39 996.81 994.81 992.13 991.43 990.98 990.81 990.78 991.26 991.68 992.22 992.67 993.08 993.41 993.85 993.84 994.17 994.55 995.02 995.69 996.50 997.02 997.47 998.20 998.48 998.77 998.69 999.17 999.74 1000.77 1001.41 1002.48 1002.85 1003.15 1003.64 1004.09 1004.30 1004.46 1004.92 1005.41 1005.89 1006.56 1006.69 1006.93
1003.32 1002.49 1001.56 1000.63 999.08 997.60 997.39 995.04 992.73 990.83 990.42 990.46 990.22 990.83 991.23 991.79 992.21 992.69 992.91 992.91 992.86 993.22 993.73 994.24 995.00 995.76 996.39 997.17 997.76 998.33 998.49 998.77 999.22 1000.02 1000.17 1000.70 1002.05 1002.49 1003.03 1003.30 1003.80 1004.03 1004.47 1004.95 1005.46 1006.15 1006.50 1006.75 1006.65
1002.63 1003.32 1002.21 1001.33 999.43 998.59 997.02 993.59 992.39 991.80 991.19 991.36 991.15 991.05 991.38 992.25 992.51 992.49 992.52 992.35 992.06 992.35 993.07 993.93 994.51 995.09 996.11 996.75 997.54 998.02 998.31 998.86 999.22 999.65 999.56 1000.07 1000.72 1001.47 1002.68 1003.21 1003.67 1003.89 1004.52 1004.95 1005.49 1005.85 1005.92 1006.12 1006.61
1002.40 1002.52 1003.32 1002.14 1001.61 1000.32 997.23 993.51 992.92 991.80 991.35 991.20 991.21 992.21 992.33 992.81 992.79 992.71 992.35 992.35 992.32 992.40 992.71 993.47 993.75 994.55 995.76 996.47 997.30 997.85 998.49 998.54 998.85 999.29 1000.03 1000.28 1000.68 1001.67 1002.56 1003.01 1003.44 1004.03 1004.50 1004.86 1005.27 1005.22 1005.71 1005.93 1006.42
1002.91 1002.13 1003.04 1001.38 1000.49 999.45 996.53 993.43 990.40 990.13 990.20 990.77 991.41 992.06 992.75 993.11 992.68 992.44 992.67 992.90 992.86 992.43 992.63 993.10 993.51 994.55 995.67 996.51 997.27 997.86 998.21 998.62 999.20 999.94 999.85 1000.42 1000.99 1001.63 1002.40 1002.88 1003.44 1003.86 1004.25 1004.71 1005.13 1005.01 1005.52 1006.00 1006.33
1002.32 1001.91 1002.53 1002.94 1001.22 999.86 996.59 992.94 990.81 989.25 990.37 990.59 991.05 991.95 993.02 993.06 992.51 992.06 992.74 993.29 992.93 992.09 992.43 993.05 993.71 994.75 995.78 996.64 997.26 997.87 998.41 999.02 999.71 999.89 1000.37 1000.95 1001.53 1001.97 1002.39 1002.85 1003.46 1003.82 1004.24 1004.63 1005.05 1005.12 1005.50 1005.86 1006.23
1002.86 1002.40 1002.80 1002.80 1000.63 999.50 998.31 994.52 990.73 989.10 988.43 990.41 991.85 992.82 993.49 993.56 992.68 991.82 992.56 993.00 992.01 992.13 992.66 993.30 993.89 994.77 995.91 996.62 997.34 998.15 998.82 999.36 999.79 1000.12 1000.63 1001.20 1001.72 1002.09 1002.33 1002.72 1003.19 1003.62 1004.06 1004.58 1005.09 1005.17 1005.22 1005.55 1006.03
Wind_Speed
12 13 10 7 9 9 17 18 12 11 13 6 4 9 9 13 8 3 14 12 18 18 19 21 19 18 17 16 14 14 13 14 14 13 13 13 13 13 12 11 11 12 11 10 9 8 7 6 5
14 14 9 10 10 15 13 17 12 10 10 9 6 8 10 5 8 15 14 11 19 18 18 20 20 19 18 16 14 13 13 12 13 13 14 14 14 13 13 13 12 11 11 11 10 9 8 6 5
16 9 11 9 15 17 15 15 12 15 0 6 10 6 7 5 6 5 18 13 19 18 18 18 22 20 19 17 15 13 12 12 12 13 14 14 13 13 12 12 12 12 12 11 11 10 9 8 6
7 8 9 13 19 20 22 9 4 12 9 12 11 9 4 5 2 10 19 19 18 17 17 18 23 21 19 17 16 15 14 14 14 14 13 14 14 13 12 12 12 12 12 11 11 10 9 8 7
9 9 13 16 21 21 14 19 7 8 12 10 12 12 9 10 2 19 19 17 17 17 16 18 21 18 18 18 17 16 15 15 15 14 14 14 14 13 13 13 13 13 12 12 11 10 9 8 7
8 11 15 16 21 18 18 15 12 14 16 13 10 12 13 16 11 14 17 16 15 15 14 17 17 17 17 18 19 18 17 16 16 16 16 16 15 14 14 14 14 13 13 13 12 12 10 9 8
16 13 16 20 21 16 15 14 16 16 18 17 15 15 13 12 14 15 17 15 14 15 13 15 15 17 15 16 17 18 18 17 17 16 16 15 15 15 15 16 15 14 14 13 12 11 11 10 9
14 13 22 19 16 24 16 12 14 17 17 13 3 5 13 9 14 16 18 16 15 14 14 13 14 17 16 15 16 16 17 17 16 15 16 16 16 16 16 16 15 16 14 13 12 12 12 11 10
17 17 19 21 21 19 17 20 20 16 16 10 8 13 6 8 12 16 17 16 13 14 14 14 14 16 15 15 15 15 17 16 15 16 16 15 13 15 17 17 16 17 15 14 14 13 12 11 11
21 18 26 20 17 13 14 18 22 21 10 18 10 3 4 8 13 17 16 15 15 16 16 13 12 13 15 12 13 15 15 14 14 15 15 14 14 13 15 16 18 17 16 15 15 14 12 12 10
25 27 24 18 20 17 16 19 19 22 18 20 15 14 8 6 12 15 15 16 17 15 14 15 12 9 12 11 9 8 8 9 10 15 13 13 12 11 11 9 11 11 15 11 13 12 10 13 11
27 31 28 27 26 18 18 17 23 25 21 19 19 15 18 9 11 12 14 18 11 7 10 8 15 11 10 8 9 9 9 10 10 13 15 11 9 10 9 9 11 11 10 13 12 10 12 13 14
32 30 29 27 23 24 20 23 23 25 25 23 20 13 12 13 12 11 10 10 10 4 4 7 8 12 9 10 9 9 9 10 11 11 14 13 12 11 11 9 10 10 12 12 11 11 10 12 12
27 29 32 27 27 27 25 28 22 26 25 26 24 23 19 19 19 15 14 12 11 10 9 5 8 10 11 10 10 7 8 10 10 11 11 17 12 10 12 11 11 11 11 12 11 10 10 10 10
26 31 30 26 31 32 24 25 33 28 26 26 27 22 21 22 21 19 15 12 11 11 9 7 7 10 11 10 9 9 9 10 11 11 10 13 15 12 11 11 11 10 10 10 8 8 9 9 9
24 23 28 33 31 29 26 34 39 28 27 28 28 23 24 25 24 19 17 14 13 11 9 9 10 5 6 8 8 8 9 10 10 10 10 13 13 14 11 11 11 10 10 10 10 10 10 10 10
21 25 30 32 32 31 28 38 35 33 28 28 28 27 25 24 26 21 17 12 10 10 10 11 10 10 8 7 8 9 10 9 9 10 10 12 14 15 12 12 10 9 10 10 9 10 10 9 8
23 28 30 33 28 30 32 37 30 31 28 29 26 25 24 25 26 23 18 15 13 10 9 9 9 10 7 7 6 8 9 9 9 10 10 11 11 15 13 11 10 9 9 10 9 10 9 8 9
24 28 35 31 27 31 30 36 36 30 27 30 27 26 22 20 19 20 13 10 13 11 10 11 13 10 8 9 9 9 9 9 9 9 11 12 12 14 12 11 10 8 9 9 8 7 9 9 5
26 27 32 31 34 28 28 35 33 32 28 28 30 22 22 21 21 18 15 14 12 12 12 13 13 10 9 8 7 8 6 8 9 9 10 12 13 13 12 11 10 11 9 9 8 9 8 7 5
25 25 28 31 27 28 33 30 32 31 30 29 30 29 25 23 23 21 19 14 13 14 14 14 12 12 11 10 6 5 6 6 8 9 9 10 13 13 11 13 9 11 9 9 9 10 9 8 6
27 22 25 26 26 23 33 21 31 30 30 26 27 29 28 28 19 19 21 19 16 15 16 13 14 13 11 9 9 10 9 9 9 9 9 10 13 11 12 11 9 10 9 7 9 7 8 6 5
24 23 25 27 26 30 33 24 19 25 29 28 28 27 26 20 25 26 24 20 19 19 16 15 13 12 11 9 11 10 11 9 9 9 12 9 8 11 12 9 8 9 8 7 6 8 7 5 5
17 25 29 28 22 25 30 29 23 22 25 27 29 28 26 23 22 21 20 21 18 15 17 12 12 12 11 12 13 11 12 10 10 10 10 10 7 7 9 12 10 10 7 7 7 6 7 6 5
20 21 15 18 20 20 25 30 22 14 15 10 15 18 18 14 12 14 17 15 15 15 14 13 12 12 13 14 13 14 11 9 10 12 11 13 10 9 8 9 9 8 7 5 5 6 6 6 7
14 19 11 19 15 20 27 28 26 28 18 10 3 6 4 7 12 12 11 12 11 11 12 14 15 14 13 13 14 13 12 10 10 12 10 9 10 10 12 10 9 8 8 6 5 7 6 7 6
24 11 21 27 20 16 16 32 29 35 27 23 15 9 7 2 7 8 7 7 9 9 10 14 15 13 13 13 13 13 14 12 12 10 9 8 8 11 11 10 9 7 7 7 6 6 5 4 5
22 17 11 11 19 19 17 22 22 14 27 15 15 14 7 5 7 4 4 5 8 10 10 11 13 14 15 15 14 14 13 12 12 11 9 9 8 10 11 9 8 7 6 6 6 6 6 5 4
16 15 12 18 13 11 15 14 18 24 21 18 14 13 4 3 6 3 6 4 9 8 12 12 14 16 15 15 14 14 13 13 13 11 11 10 9 9 10 9 6 8 8 7 6 2 6 7 7
14 17 1 9 14 15 16 16 26 16 12 23 15 9 5 7 9 7 9 4 7 10 13 13 15 16 16 15 14 14 14 14 13 12 11 11 9 9 9 9 9 8 8 8 6 6 6 5 5
Wind_Direction
234 245 248 238 240 232 244 228 239 218 229 257 19 253 269 244 195 76 147 131 142 143 150 165 170 174 173 173 173 175 171 167 167 163 159 162 162 165 161 163 168 167 169 170 166 160 160 159 159
214 239 245 265 243 245 229 239 193 227 190 154 190 248 259 173 74 110 149 147 138 139 151 170 175 177 175 172 176 178 177 176 170 168 166 168 168 170 170 170 176 175 176 175 170 169 171 173 175
253 229 261 228 232 248 262 215 195 196 144 210 228 209 214 266 44 70 126 149 144 148 158 172 173 179 177 174 175 178 182 181 181 178 174 172 170 172 174 174 178 183 182 180 179 177 180 182 183
215 210 251 260 249 229 262 302 320 186 197 221 227 186 215 218 133 145 143 150 151 159 163 157 171 179 178 173 175 179 185 185 190 187 180 177 175 175 173 178 182 188 190 189 187 186 190 191 191
246 259 241 238 242 262 263 270 197 261 248 213 203 228 205 158 277 123 151 155 159 163 168 153 169 178 176 177 177 181 189 188 192 190 190 184 180 177 177 186 189 194 196 197 196 197 199 203 206
231 242 243 240 246 240 249 258 262 239 252 237 231 234 214 145 172 159 158 160 166 164 167 149 166 173 180 180 179 184 189 194 195 192 192 187 183 183 184 191 194 199 200 201 203 204 207 212 218
245 241 252 263 268 262 234 241 238 236 240 232 227 225 226 161 185 167 164 163 168 157 171 146 174 179 184 184 183 187 189 194 198 196 193 193 188 188 191 196 198 203 207 205 207 211 213 217 222
240 250 255 249 262 274 302 277 257 239 249 254 298 242 235 163 137 174 173 169 170 167 174 171 170 183 191 191 192 192 195 193 196 199 195 195 194 193 196 200 202 206 209 208 211 214 215 217 221
234 252 252 246 237 252 277 292 282 248 245 258 234 244 12 109 170 175 181 175 185 181 180 186 177 176 195 196 191 194 203 202 198 201 201 195 206 199 204 208 203 206 210 209 215 217 217 218 224
226 238 244 254 257 271 229 254 256 259 223 253 195 236 206 184 186 188 187 189 193 193 187 186 199 189 189 201 193 197 204 208 208 210 205 211 215 212 209 205 213 199 206 213 217 219 219 222 232
229 240 249 254 259 265 257 263 268 265 222 220 221 173 187 162 195 207 191 210 204 213 193 188 169 193 209 201 197 201 202 204 209 213 209 205 217 218 206 214 195 207 204 215 209 211 222 222 232
247 244 246 254 270 267 252 271 270 273 257 249 216 204 193 186 195 216 218 213 233 224 213 205 172 179 208 223 200 210 217 207 206 203 203 214 209 215 221 209 207 193 211 213 221 210 212 223 235
241 247 251 253 255 263 258 247 255 258 264 263 250 213 231 215 230 233 250 280 286 252 213 234 244 167 198 217 234 217 224 217 221 206 192 202 217 216 208 220 222 205 207 203 222 229 207 216 229
255 252 253 250 252 254 252 249 251 248 258 259 254 250 234 240 233 226 220 230 253 258 244 229 220 164 193 215 217 241 231 242 222 223 207 195 208 214 216 207 220 236 216 217 211 220 224 227 238
263 266 265 256 243 245 244 257 248 248 252 249 247 244 247 242 239 236 236 236 244 249 242 239 210 181 195 219 224 228 241 230 242 219 215 196 202 214 209 212 216 224 231 233 239 219 218 242 234
281 272 248 243 245 242 227 248 249 247 239 244 252 247 238 233 235 238 233 240 240 248 247 219 240 249 214 213 233 246 244 231 228 233 212 204 194 215 207 222 219 223 225 222 224 225 233 224 235
245 251 246 248 236 239 238 239 246 251 252 237 236 244 243 239 236 236 238 243 232 224 228 238 233 253 256 237 242 243 240 234 232 217 221 197 200 200 225 215 225 217 224 223 216 228 226 232 242
254 244 246 256 255 227 232 243 241 247 247 249 260 235 235 234 238 234 223 213 232 239 227 242 257 268 247 252 245 248 240 226 225 223 215 189 196 200 199 218 222 206 218 221 216 222 224 233 251
269 271 275 266 255 249 256 233 243 234 240 254 236 240 237 235 246 243 229 220 227 218 235 253 257 246 240 233 233 231 231 220 218 221 201 190 191 198 194 216 195 206 215 219 204 214 229 241 209
272 274 269 268 270 277 262 253 244 239 229 238 251 240 237 238 237 238 239 236 234 239 230 241 234 226 222 218 242 271 236 218 213 203 185 189 190 190 191 216 178 189 205 199 203 214 223 215 195
252 264 270 271 269 259 264 262 254 245 236 227 241 249 246 238 239 241 243 247 246 233 228 224 221 220 216 215 225 220 262 242 192 188 180 188 191 186 187 213 186 170 222 181 201 204 215 216 189
266 263 270 271 269 257 247 251 242 244 244 229 234 241 241 242 252 251 251 247 242 248 246 219 216 214 210 204 230 209 222 206 202 195 183 172 187 163 200 201 177 176 208 157 184 208 221 229 237
269 271 261 262 254 259 253 251 246 240 238 236 238 239 233 235 239 244 245 246 244 238 230 221 223 216 210 206 214 201 223 207 188 189 138 167 167 177 180 178 167 181 214 156 201 197 213 221 226
287 282 262 251 245 242 243 250 238 229 239 235 222 225 230 232 238 243 248 248 249 252 245 228 204 208 211 204 194 215 196 237 178 157 165 164 153 176 163 173 180 186 211 162 199 201 217 240 226
255 259 261 243 228 241 251 239 247 221 235 288 245 233 226 233 243 244 238 238 232 230 237 229 199 201 199 193 187 199 204 189 161 155 178 157 161 176 176 166 181 176 196 178 188 209 208 213 235
233 297 240 251 221 235 232 233 227 249 251 133 307 304 141 203 240 242 253 248 242 235 222 214 192 193 181 180 183 186 170 177 167 195 158 171 164 165 154 176 175 186 179 193 194 197 216 192 207
266 208 240 265 270 296 291 223 229 225 236 245 237 191 160 251 262 261 266 268 255 255 208 197 192 176 171 166 170 163 177 163 167 133 156 142 144 125 166 177 178 170 189 190 157 241 189 186 194
264 272 269 287 264 259 267 270 211 190 202 194 189 185 149 228 275 285 311 291 265 228 186 182 169 159 164 158 157 165 156 157 137 149 157 145 131 150 164 168 171 185 185 174 186 187 175 201 181
245 257 241 251 268 296 265 252 239 198 195 199 194 116 118 328 325 6 29 317 256 188 161 163 157 158 154 158 160 150 151 144 149 152 142 138 149 150 169 173 157 180 171 182 180 253 158 184 184
251 255 208 249 255 245 253 299 308 132 130 184 115 98 70 339 352 3 64 331 226 169 148 154 154 153 158 158 148 150 147 149 148 145 146 146 162 171 169 170 170 170 174 174 184 216 164 178 191